map of IGR home
Great Circle Mapper logo
IGR - Airport
Location
City:  Iguaçu, Misiones, Argentina
Near (Alt.):Iguazu
Name:Cataratas del Iguaçu
ICAO / IATA:SARI / IGR

Details
Type:Airport (Aerodrome, Airfield)
Use:Public/Civil
Latitude:25°44'14"S (-25.737280)
Longitude:54°28'24"W (-54.473443)
Datum:WGS 1984
Elevation:916 ft (279 m)
Variation:15.81°W (WMM2015 magnetic declination)
-0.17° annual change
Runways:1
Longest:10826 × 148 ft (3300 × 45 m), paved

Time
Time Zone:UTC-3
Local Time:

Weather
METAR:SARI 280000Z 20006KT CAVOK 20/18 Q1017
TAF:SARI 272300Z 2800/2824 18005KT CAVOK TX28/2818Z TN16/2809Z PROB30 2806/2811 4000 NSC

Related Locations
Nearby:
Farthest:SHI: 12364 mi / 19898 km
Shimojishima, Shimoji Island, JP

Find:

   beyond  
but within

Other Information
Maps:
NOTAMs:
Links:
Sources:

  
flag of Argentina
flag of Misiones
  

Sectional Chart

Flight Planning
at skyvector.com

Satellite Image

Google Maps Satellite View

 

Copyright © 2004-2015 Karl L. Swartz. All rights reserved.
The Great Circle Mapper name and logo are trademarks of the Great Circle Mapper.
All other trademarks mentioned herein belong to their respective owners.
Please see credits for attibutions and further copyright information.

  Follow gcmap on Facebook Follow gcmap on Twitter Follow gcmap on Google+

hCard Microformat

Geo Microformat